Hourly Data Report for October 03, 2017

All times are specified in Local Standard Time (LST). Add 1 hour to adjust for Daylight Saving Time where and when it is observed.

LUNENBURG
NOVA SCOTIA

44°21'36.094" N
64°17'46.082" W
3.80 m
8203210
XLB

Related Data

No related data is available for this station

Download Data

Hourly Data (October 2017)
Hourly Data Report for October 3, 2017
Temp Definition
°C
Dew Point Temp Definition
°C
Rel Hum Definition
%
Wind Dir Definition
10's deg

Wind Spd Definition
km/h
Visibility Definition
km
Stn Press Definition
kPa
Hmdx Definition


Wind Chill Definition


Weather Definition


TIME
00:00 7.2 4.8 85 29 12   103.30     LegendNANA
01:00 7.2 4.7 84 31 15   103.32     LegendNANA
02:00 7.3 5.9 91 32 13   103.35     LegendNANA
03:00 7.1 5.7 90 31 16   103.34     LegendNANA
04:00 7.2 5.8 90 32 15   103.40     LegendNANA
05:00 7.0 5.3 89 30 15   103.45     LegendNANA
06:00 7.3 5.9 91 31 13   103.51     LegendNANA
07:00 7.0 5.5 90 30 15   103.58     LegendNANA
08:00 8.2 6.0 86 32 11   103.60     LegendNANA
09:00 9.8 6.0 77 31 14   103.62     LegendNANA
10:00 11.0 5.8 70 30 14   103.63     LegendNANA
11:00 12.6 3.9 56 33 8   103.59     LegendNANA
12:00 14.2 5.4 55 15 3   103.53     LegendNANA
13:00 14.9 4.8 51 19 2   103.48     LegendNANA
14:00 14.7 4.2 50 29 12   103.45     LegendNANA
15:00 15.2 4.4 48 27 14   103.39     LegendNANA
16:00 15.2 4.1 47 28 11   103.29     LegendNANA
17:00 14.5 7.8 64 19 8   103.26     LegendNANA
18:00 14.1 7.0 62 26 6   103.16     LegendNANA
19:00 13.3 6.8 65 29 13   103.19     LegendNANA
20:00 12.3 5.3 62 28 16   103.18     LegendNANA
21:00 11.4 5.0 65 28 13   103.17     LegendNANA
22:00 10.9 6.0 72 23 11   103.15     LegendNANA
23:00 10.6 6.6 76 22 13   103.10     LegendNANA

Notes on Data Quality.

Legend

  • E = Estimated
  • M = Missing
  • NA = Not Available
  • ‡ = Partner data that is not subject to review by the National Climate Archives
Date modified: